Nasa Shuttle, FL

8:53 PM EDT on July 27, 2017 (GMT -0400)
Nasa Shuttle

Weather History for KTTS - September, 2013

Change the Weather History Date:

Wednesday, September 18, 2013

  Actual Average Record
Temperature  
Mean Temperature 81 °F -  
Max Temperature 87 °F 84 °F 90 °F (2012)
Min Temperature 75 °F 71 °F 66 °F (2001)
Cooling Degree Days 16    
Growing Degree Days 31 (Base 50)    
Moisture  
Dew Point 73 °F    
Average Humidity 79    
Maximum Humidity 94    
Minimum Humidity 62    
Precipitation  
Precipitation 0.09 in - - ()
Sea Level Pressure  
Sea Level Pressure 30.02 in    
Wind  
Wind Speed 10 mph (East)    
Max Wind Speed 17 mph    
Max Gust Speed 25 mph    
Visibility 10 miles    
Events Rain    
Averages and records for this station are not official NWS values.
T = Trace of Precipitation, MM = Missing Value Source: NWS Daily Summary

Daily Weather History Graph

Daily Weather History Graph

Search for Another Location

Airport or City:

Trip Planner

Search our weather history database for the weather conditions in past years. The results will help you decide how hot, cold, wet, or windy it might be!

Date:

Astronomy

Sep. 18, 2013 Rise Set
Actual Time 7:09 AM EDT 7:23 PM EDT
Civil Twilight 6:45 AM EDT 7:47 PM EDT
Nautical Twilight 6:18 AM EDT 8:14 PM EDT
Astronomical Twilight 5:50 AM EDT 8:42 PM EDT
Moon 6:47 PM EDT (9/18) 6:11 AM EDT (9/18)
Length of Visible Light 13h 01m
Length of Day
12h 14m
Waxing Gibbous, 99% of the Moon is Illuminated
Sep 18
Waxing Gibbous
Sep 19
Full
Sep 26
Last Quarter
Oct 4
New
Oct 11
First Quarter

Hourly Weather History & Observations

Time (EDT) Temp. Heat Index Dew Point Humidity Pressure Visibility Wind Dir Wind Speed Gust Speed Precip Events Conditions
12:58 AM 79.7 °F - 72.3 °F 78% 30.02 in 10.0 mi East 10.4 mph - N/A   Scattered Clouds
1:58 AM 79.5 °F - 72.7 °F 79% 30.01 in 10.0 mi East 6.9 mph - N/A   Scattered Clouds
2:40 AM 78.8 °F - 71.6 °F 78% 30.01 in 10.0 mi ESE 15.0 mph 23.0 mph N/A Rain Light Rain
2:58 AM 75.7 °F - 71.4 °F 86% 30.01 in 10.0 mi ESE 8.1 mph 16.1 mph 0.01 in Rain Light Rain
3:04 AM 75.2 °F - 71.6 °F 89% 30.00 in 10.0 mi East 10.4 mph 16.1 mph N/A   Overcast
3:16 AM 75.2 °F - 71.6 °F 89% 30.00 in 10.0 mi ESE 5.8 mph - N/A Rain Light Rain
3:33 AM 77.0 °F - 75.2 °F 94% 30.00 in 10.0 mi ESE 4.6 mph - N/A   Overcast
3:53 AM 77.0 °F - 73.4 °F 89% 29.99 in 10.0 mi East 6.9 mph - N/A   Overcast
3:58 AM 76.8 °F - 73.6 °F 90% 30.00 in 10.0 mi East 6.9 mph - 0.02 in   Overcast
4:08 AM 77.0 °F - 73.4 °F 89% 29.99 in 10.0 mi East 8.1 mph - N/A   Mostly Cloudy
4:58 AM 77.0 °F - 73.0 °F 88% 29.99 in 10.0 mi East 4.6 mph - N/A   Scattered Clouds
5:08 AM 77.0 °F - 73.4 °F 89% 29.98 in 10.0 mi East 4.6 mph - N/A   Mostly Cloudy
5:13 AM 77.0 °F - 73.4 °F 89% 29.98 in 10.0 mi East 3.5 mph - N/A   Mostly Cloudy
5:58 AM 77.2 °F - 72.1 °F 84% 30.00 in 10.0 mi East 5.8 mph - N/A   Clear
6:48 AM 77.0 °F - 73.4 °F 89% 30.00 in 10.0 mi East 6.9 mph - N/A   Light Drizzle
6:58 AM 77.9 °F - 73.8 °F 87% 30.02 in 10.0 mi ENE 6.9 mph - 0.00 in Rain Light Rain
7:02 AM 78.8 °F - 73.4 °F 83% 30.01 in 8.0 mi ENE 10.4 mph 17.3 mph N/A   Partly Cloudy
7:58 AM 80.1 °F 84.0 °F 72.3 °F 77% 30.02 in 10.0 mi East 4.6 mph - 0.00 in   Scattered Clouds
8:18 AM 80.6 °F 85.4 °F 73.4 °F 79% 30.02 in 10.0 mi ENE 8.1 mph - N/A   Mostly Cloudy
8:23 AM 80.6 °F 85.4 °F 73.4 °F 79% 30.03 in 10.0 mi ENE 9.2 mph - N/A   Mostly Cloudy
8:58 AM 80.8 °F 86.1 °F 74.5 °F 81% 30.04 in 10.0 mi ENE 11.5 mph 18.4 mph N/A   Scattered Clouds
9:03 AM 80.6 °F 86.2 °F 75.2 °F 84% 30.03 in 10.0 mi ENE 11.5 mph 20.7 mph N/A   Light Drizzle
9:18 AM 80.6 °F 86.2 °F 75.2 °F 84% 30.03 in 10.0 mi East 13.8 mph 21.9 mph N/A   Scattered Clouds
9:58 AM 83.1 °F 90.4 °F 74.8 °F 76% 30.05 in 10.0 mi East 15.0 mph 25.3 mph 0.00 in   Partly Cloudy
10:58 AM 84.7 °F 92.5 °F 74.5 °F 71% 30.05 in 10.0 mi East 17.3 mph - N/A   Scattered Clouds
11:58 AM 85.5 °F 93.4 °F 74.3 °F 69% 30.06 in 10.0 mi East 13.8 mph 19.6 mph N/A   Mostly Cloudy
12:58 PM 85.1 °F 92.2 °F 73.6 °F 68% 30.05 in 10.0 mi East 13.8 mph 21.9 mph N/A   Scattered Clouds
1:08 PM 86.0 °F 93.4 °F 73.4 °F 66% 30.04 in 10.0 mi ENE 15.0 mph 21.9 mph N/A   Mostly Cloudy
1:13 PM 86.0 °F 93.4 °F 73.4 °F 66% 30.04 in 10.0 mi East 15.0 mph 23.0 mph N/A   Scattered Clouds
1:23 PM 86.0 °F 95.1 °F 75.2 °F 70% 30.03 in 10.0 mi East 13.8 mph 21.9 mph N/A   Mostly Cloudy
1:43 PM 87.8 °F 95.6 °F 73.4 °F 62% 30.03 in 10.0 mi East 16.1 mph 21.9 mph N/A   Scattered Clouds
1:58 PM 87.3 °F 95.8 °F 74.3 °F 65% 30.04 in 10.0 mi ENE 12.7 mph 21.9 mph N/A   Scattered Clouds
2:51 PM 84.2 °F 92.3 °F 75.2 °F 74% 30.03 in 10.0 mi ENE 16.1 mph 23.0 mph N/A Rain Rain
2:58 PM 81.1 °F 87.6 °F 75.9 °F 84% 30.04 in 9.0 mi ENE 12.7 mph 23.0 mph 0.04 in Rain Light Rain
3:28 PM 82.4 °F 87.2 °F 71.6 °F 70% 30.01 in 10.0 mi East 11.5 mph 20.7 mph N/A   Partly Cloudy
3:58 PM 82.4 °F 88.2 °F 73.2 °F 74% 30.01 in 10.0 mi ENE 12.7 mph 17.3 mph 0.02 in   Mostly Cloudy
4:58 PM 84.2 °F 89.9 °F 72.3 °F 67% 30.01 in 10.0 mi ENE 12.7 mph 18.4 mph N/A   Partly Cloudy
5:58 PM 83.3 °F 88.4 °F 71.8 °F 68% 30.01 in 10.0 mi ENE 11.5 mph - N/A   Partly Cloudy
6:58 PM 81.0 °F 84.9 °F 71.1 °F 72% 30.03 in 10.0 mi ENE 9.2 mph - N/A   Scattered Clouds
7:58 PM 78.3 °F - 69.6 °F 75% 30.03 in 10.0 mi NE 6.9 mph - N/A   Partly Cloudy
8:58 PM 76.6 °F - 69.1 °F 77% 30.04 in 10.0 mi ENE 5.8 mph - N/A   Partly Cloudy
9:58 PM 76.1 °F - 68.7 °F 78% 30.06 in 10.0 mi ENE 4.6 mph - N/A   Clear
10:58 PM 75.2 °F - 69.3 °F 82% 30.06 in 10.0 mi NE 5.8 mph - N/A   Partly Cloudy
11:58 PM 76.3 °F - 73.0 °F 90% 30.06 in 10.0 mi East 10.4 mph - N/A   Mostly Cloudy